Weather Roundup
Issued by NWS

Home | Current Version | Previous Version | Graphics & Text | Print | Product List | Glossary On
Versions: 1 2 3 4 5 6 7 8 9 10 11 12 13 14 15 16 17 18 19 20 21 22 23 24 25 26 27 28 29 30 31 32 33 34 35 36 37 38 39 40 41 42 43 44 45 46 47 48 49 50
000
NZUS93 KARX 212210
HRRWXR

CURRENT HOURLY OBSERVATIONS ACROSS
MUCH OF THE UPPER MISSISSIPPI VALLEY
NATIONAL WEATHER SERVICE LA CROSSE WI
500 PM CDT THU AUG 21 2014


...SOUTHEAST MINNESOTA...


CITY           SKY/WX    TMP DP  RH WIND       PRES   REMARKS
ROCHESTER      CLOUDY    82  72  71 S9        29.85R
ROCHESTER/MAYO CLOUDY    83  69  62 S9        29.84R
WINONA         MOSUNNY   82  70  65 S6        29.83R
AUSTIN         MOSUNNY   84  72  65 SW9       29.83S
ALBERT LEA     MOSUNNY   86  70  58 SW7G18    29.83R HX  90
DODGE CENTER   PTSUNNY   84  73  70 SW9       29.84R HX  91
PRESTON        MOSUNNY   81  75  83 S9        29.87R
OWATONNA       SUNNY     86  72  62 S9        29.82R HX  92
FARIBAULT      CLOUDY    88  66  48 SW5       29.81R HX  90
$$

...ELSEWHERE IN MINNESOTA...


CITY           SKY/WX    TMP DP  RH WIND       PRES   REMARKS
MINNEAPOLIS    CLOUDY    81  73  76 NE8       29.79R
INTNL FALLS    CLOUDY    68  62  81 SE9       29.89R
DULUTH         CLOUDY    66  60  81 E16       29.89R
RED WING       PTSUNNY   82  72  69 SE6       29.79R
REDWOOD FALLS  PTSUNNY   87  74  64 N8        29.79R HX  95
MANKATO        PTSUNNY   84  70  61 S9G17     29.79R
WORTHINGTON    MOSUNNY   90  27  10 W7        29.84R
FAIRMONT       MOSUNNY   88  70  55 MISG      29.82R HX  92
$$

...SOUTHWEST WISCONSIN...


CITY           SKY/WX    TMP DP  RH WIND       PRES   REMARKS
LA CROSSE      MOSUNNY   83  72  69 S10       29.84R
PRAIRIE DU CHI PTSUNNY   77  71  79 S6        29.85R
BOSCOBEL       PTSUNNY   83  72  69 S3        29.85S
LONE ROCK      CLOUDY    84  74  71 SE6       29.86F HX  91
PLATTEVILLE    PTSUNNY   76  73  90 S10       29.90R
FORT MC COY    PTSUNNY   79  69  70 S10       29.88R
CAMP DOUGLAS   PTSUNNY   77  75  92 SE6       29.89R
VIROQUA        MOCLDY    80  74  84 S6        29.89R
WIS DELLS      CLOUDY    76  69  79 SE5       29.89S
$$

...ELSEWHERE IN WISCONSIN...


CITY           SKY/WX    TMP DP  RH WIND       PRES   REMARKS
MILWAUKEE      PTSUNNY   77  71  82 S8        29.92S
MADISON        CLOUDY    77  71  82 S10       29.89S
GREEN BAY      PTSUNNY   70  65  84 SE7       29.94S
EAU CLAIRE     MOSUNNY   79  70  74 S14G21    29.84S
BLACK RVR FLS  CLOUDY    79  70  74 E5        29.86S
MEDFORD        CLOUDY    69  67  92 E7        29.92R
WAUSAU         CLOUDY    69  66  90 E8        29.92S
WIS RAPIDS     CLOUDY    77  69  76 S7        29.91S
MARSHFIELD     CLOUDY    76  68  76 SE6       29.90S
RICE LAKE      CLOUDY    74  68  79 SE8       29.87R
$$

...NORTHEAST IOWA...


CITY           SKY/WX    TMP DP  RH WIND       PRES   REMARKS
WATERLOO       MOSUNNY   85  71  63 S22       29.83R HX  90
DUBUQUE        CLOUDY    75  73  93 S14       29.89F
DECORAH        PTSUNNY   81  73  78 VRB7      29.86S
MASON CITY     MOSUNNY   89  71  55 SW15      29.85R HX  95
CHARLES CITY   PTSUNNY   84  73  70 S10       29.86R HX  91
OELWEIN        PTSUNNY   79  72  78 S15       29.87R
$$

...ELSEWHERE IN IOWA...


CITY           SKY/WX    TMP DP  RH WIND       PRES   REMARKS
DES MOINES     MOSUNNY   87  74  64 SW15      29.85S HX  95
IOWA CITY      PTSUNNY   80  77  90 SE10      29.89F
FORT DODGE     PTSUNNY   86  73  66 SW13G22   29.84S HX  93
MARSHALLTOWN   SUNNY     83  73  72 S21       29.85R
CEDAR RAPIDS   CLOUDY    79  75  87 SE10      29.87S
$$

...NORTHERN ILLINOIS...


CITY           SKY/WX    TMP DP  RH WIND       PRES   REMARKS
CHICAGO-OHARE  CLOUDY    75  71  87 SE9       29.93F
DUPAGE         LGT RAIN  76  71  85 S7        29.94F
CHICAGO-MIDWAY TSTM      77  75  93 E7        29.94F FOG
MOLINE         CLOUDY    82  72  71 E8        29.90S
ROCKFORD       CLOUDY    77  74  90 SE12      29.90F
STERLING       CLOUDY    77  73  88 S6        29.89F
PEORIA         CLOUDY    87  75  67 CALM      29.93S HX  96
$$

NOTE: "FAIR" INDICATES FEW OR NO CLOUDS BELOW 12,000 FEET WITH NO
SIGNIFICANT WEATHER AND/OR OBSTRUCTIONS TO VISIBILITY. WIND
SPEEDS ARE IN MILES-PER-HOUR.



USA.gov is the U.S. government's official web portal to all federal, state and local government web resources and services.